www.pogodaiklimat.ru

Погода и климат >> Архив погоды >> Франция >> Осер


ПОГОДА в Осере

  • Прогноз погоды в Осере
  • Монитор погоды в Осере

АРХИВ ПОГОДЫ в Осере

Время (UTC), дата Ветер
(напр.,м/с)
 
Видим.   Явления Облачность Т
(С)
Тd
(С)
f
(%)
Тe
(С)
Тes
(С)
Комфортность P
(гПа)
Po
(гПа)
Тmin
(С)
Tmax
(С)
R
(мм)
R24
(мм)
S
(см)
16 18.06 ЮВ 3 20 км н/о +29.9 +13.2 36 +31 +31 жарко 1009.9 992.8
17 18.06 Ю 1 20 км 10/10
[]
+28.7 +14.1 41 +31 +31 жарко 1009.7 992.5
18 18.06 ЮВ 1
{4}
20 км 9/0
[]
+28.9 +13.2 38 +30 +31 жарко 1009.4 992.2 +15.5 +30.5 0
19 18.06 В 1 20 км н/о +26.5 +14.9 49 +29 +29 жарко 1009.0 991.7
20 18.06 В 1 20 км н/о +23.9 +13.7 53 +26 +26 жарко 1009.2 991.7
21 18.06 Ю 1
{4}
20 км н/о +20.4 +14.7 70 +25 +25 комфорт 1009.4 991.7 0
22 18.06 ЮВ 2 20 км н/о +21.2 +15.9 72 +25 +25 комфорт 1008.9 991.3
23 18.06 ЮВ 2 20 км н/о +21.5 +15.1 67 +25 +25 комфорт 1008.4 990.8
00 19.06 Ю 1
{4}
20 км н/о +19.6 +15.0 75 +23 +23 комфорт 1008.1 990.4 0
01 19.06 Ю 1 20 км 9/9
[]
+19.6 +14.4 72 +22 +22 комфорт 1008.0 990.3
02 19.06 ЮВ 2 20 км 10/10
[]
+19.8 +13.7 68 +22 +22 комфорт 1008.3 990.6
03 19.06 ЮВ 2
{5}
20 км 10/0
[]
+19.9 +13.1 65 +23 +23 комфорт 1008.7 991.0 0
04 19.06 ЮЗ 2 20 км 9/9
[]
+21.3 +13.5 61 +24 +24 комфорт 1009.4 991.8
05 19.06 З 2 20 км н/о +20.7 +13.4 63 +24 +24 комфорт 1009.4 991.7
06 19.06 ЮВ 2
{5}
20 км 9/0
[]
+20.8 +13.5 63 +24 +25 комфорт 1009.1 991.5 +18.9 +29.1 0
07 19.06 ЮВ 2 20 км 10/10
[]
+20.4 +14.3 68 +23 +23 комфорт 1008.9 991.2
08 19.06 Ю 2 20 км н/о +23.0 +14.8 60 +27 +27 душно 1009.2 991.7
09 19.06 Ю 3
{9}
20 км 9/0
[]
+25.3 +14.1 50 +28 +29 жарко 1009.5 992.1 0
10 19.06 ЮЗ 3 20 км н/о +25.5 +14.6 51 +28 +28 жарко 1009.8 992.4
11 19.06 Ю 3 20 км н/о +27.1 +13.8 44 +29 +29 жарко 1009.7 992.4
12 19.06 ЮЗ 3
{11}
20 км 8/8 1500 м
[]
+26.3 +13.1 44 +28 +31 жарко 1009.9 992.6 0
13 19.06 ЮЗ 3 20 км 9/9 1500 м
[]
+27.1 +14.1 45 +29 +31 жарко 1009.7 992.4
14 19.06 ЮЗ 2 20 км н/о +27.5 +14.2 44 +30 +30 жарко 1009.6 992.3
15 19.06 З 3
{9}
20 км 9/9 1500 м
[]
+25.9 +14.4 49 +28 +29 жарко 1009.5 992.2 0
16 19.06 ЮЗ 3 19 км дождь 9/3 1300 м
[]
+22.4 +14.5 61 +26 +28 жарко 1011.1 993.5 0.0
17 19.06 Ю 1 20 км 10/10
[]
+21.2 +18.2 83 +25 +25 комфорт 1010.6 993.0 1
18 19.06 Ю 2
{5}
20 км 10/0
[]
+21.2 +17.8 81 +25 +25 комфорт 1010.9 993.3 +19.5 +28.2 1 0
19 19.06 ЮЗ 2 20 км 9/9
[]
+21.2 +17.4 79 +25 +25 комфорт 1011.0 993.4
20 19.06 ЮЗ 1 20 км 10/10
[]
+20.2 +15.8 76 +24 +24 комфорт 1011.8 994.1
21 19.06 ЮЗ 1
{4}
20 км 10/0
[]
+19.2 +14.5 74 +22 +22 комфорт 1012.4 994.6 0
22 19.06 Ю 1 20 км 10/10
[]
+18.3 +15.0 81 +20 +20 1012.7 994.9
23 19.06 Ю 1 20 км 10/9 1440 м
[]
+18.3 +14.6 79 +20 +20 1013.0 995.1
00 20.06 ЮЗ 1
{4}
20 км 9/0 2000 м
[]
+18.2 +14.3 78 +20 +20 1013.1 995.2 0
01 20.06 ЮЗ 1 20 км н/о +17.0 +13.9 82 +18 +18 1013.1 995.2
02 20.06 ЮЗ 1 20 км 10/10 2000 м
[]
+17.0 +13.9 82 +18 +18 1013.2 995.3
03 20.06 ЮЗ 1
{4}
20 км н/о +15.8 +13.1 84 +16 +16 1013.6 995.6 0
04 20.06 Ю 1 20 км н/о +15.2 +13.0 87 +16 +16 1013.8 995.7
05 20.06 ЮЗ 1 20 км 8/8 1300 м
[]
+15.9 +13.7 87 +17 +17 1014.0 996.0
06 20.06 Ю 2
{6}
20 км н/о +16.6 +13.7 83 +17 +17 1014.2 996.2 +15.0 +21.7 0
07 20.06 ЮЗ 2 20 км 9/8 540 м
[]
+17.9 +14.2 79 +18 +19 1014.4 996.5
08 20.06 ЮЗ 1 20 км 10/10 480 м
[]
+17.3 +14.2 82 +18 +18 1014.6 996.7
09 20.06 Ю 2
{6}
13 км дождь 10/10 300 м
[]
+17.1 +14.4 84 +18 +18 1015.0 997.0 0.2 0
10 20.06 ЮЗ 2 13 км 10/10 500 м
[]
+17.3 +15.5 89 +18 +18 1015.3 997.4 0.6
11 20.06 З 2 20 км 10/10 360 м
[]
+17.9 +15.3 85 +19 +19 1015.8 997.9 0.6
12 20.06 З 2
{7}
20 км 10/10 300 м
[]
+18.7 +14.6 77 +20 +22 1015.9 998.0 1 0
13 20.06 З 3 19 км 10/4 700 м
[]
+19.8 +13.7 68 +22 +27 комфорт 1015.8 998.0
14 20.06 СЗ 2 20 км 10/5 960 м
[]
+20.8 +13.2 62 +24 +28 комфорт 1015.7 997.9
15 20.06 СЗ 2
{7}
20 км н/о +21.2 +12.1 56 +23 +23 комфорт 1015.5 997.8 0
16 20.06 З 2 20 км 10/10 1500 м
[]
+21.6 +12.4 56 +24 +24 комфорт 1015.5 997.8
17 20.06 СЗ 1 20 км 9/6 1260 м
[]
+21.0 +13.2 61 +25 +26 комфорт 1015.7 998.0
18 20.06 СЗ 1
{5}
20 км 8/8 1000 м
[]
+20.3 +12.0 59 +23 +24 комфорт 1015.7 997.9 +16.4 +22.2 0
19 20.06 СЗ 1 20 км н/о +19.0 +11.6 62 +21 +21 комфорт 1016.4 998.5
20 20.06 СЗ 1 20 км н/о +17.1 +11.4 69 +19 +19 1016.8 998.8
21 20.06 З 1
{2}
20 км н/о +16.0 +11.0 72 +17 +17 1017.3 999.2 0
22 20.06 З 1 20 км 10/8 1440 м
[]
+15.4 +12.0 80 +17 +17 1017.8 999.7
23 20.06 З 1 20 км 10/6 1470 м
[]
+14.9 +12.4 85 +16 +16 1018.1 999.9
00 21.06 З 1
{2}
20 км 10/10 1500 м
[]
+14.6 +12.8 89 +16 +16 1018.2 1000.0 0
01 21.06 штиль 0 20 км 9/9 1500 м
[]
+14.9 +12.6 86 +15 +15 1017.9 999.7
02 21.06 З 1 20 км 10/10 1500 м
[]
+14.2 +12.6 90 +15 +15 1018.2 1000.0
03 21.06 СЗ 1
{2}
20 км 10/10 1500 м
[]
+14.0 +12.6 91 +15 +15 1018.3 1000.1 0
04 21.06 СЗ 1 20 км н/о +13.0 +11.6 91 +14 +14 1018.6 1000.3
05 21.06 С 1 19 км 8/8 1500 м
[]
+12.9 +11.8 93 +13 +13 1018.6 1000.3
06 21.06 штиль 0
{3}
14 км н/о +14.1 +12.7 91 +14 +14 1019.3 1001.1 +12.8 +20.7 0
07 21.06 С 2 20 км н/о +16.5 +12.8 79 +17 +17 1019.5 1001.4
08 21.06 СВ 2 20 км н/о +18.0 +12.0 68 +19 +19 1019.4 1001.4
09 21.06 С 2
{6}
19 км н/о +19.5 +11.5 60 +21 +21 комфорт 1019.4 1001.5 0
10 21.06 С 2 20 км 8/3 1140 м
[]
+19.5 +10.8 57 +21 +29 комфорт 1019.6 1001.7
11 21.06 С 2 20 км н/о +21.5 +10.6 50 +23 +23 комфорт 1019.3 1001.5
12 21.06 С 2
{7}
20 км н/о +22.2 +11.0 49 +24 +24 комфорт 1018.9 1001.2 0
13 21.06 С 2 20 км н/о +22.7 +9.8 44 +24 +24 комфорт 1018.8 1001.1
14 21.06 СВ 2 20 км н/о +22.8 +9.6 43 +24 +24 комфорт 1018.4 1000.7
15 21.06 С 2
{7}
20 км н/о +22.6 +10.1 45 +24 +24 комфорт 1018.3 1000.6 0
16 21.06 С 2 20 км н/о +22.5 +9.3 43 +24 +24 комфорт 1018.2 1000.5
17 21.06 С 2 19 км н/о +22.2 +10.3 47 +24 +24 комфорт 1018.2 1000.5
18 21.06 С 2
{8}
20 км н/о +21.0 +9.9 49 +23 +23 комфорт 1018.3 1000.5 +14.1 +23.3 0
19 21.06 С 2 20 км 8/8 2000 м
[]
+20.0 +10.1 53 +22 +22 комфорт 1018.9 1001.0
20 21.06 С 2 20 км 10/10 2000 м
[]
+18.7 +9.7 56 +20 +20 1019.4 1001.4
21 21.06 С 2
{6}
20 км 10/0 2000 м
[]
+17.9 +9.8 59 +19 +19 1019.7 1001.7 0
22 21.06 С 1 20 км 10/10 2000 м
[]
+17.1 +9.8 62 +18 +18 1020.0 1001.9
23 21.06 С 1 20 км слаб. дождь 10/10 1500 м
[]
+15.9 +10.2 69 +17 +17 1020.2 1002.0 0.0
00 22.06 С 1
{6}
20 км 10/10 1500 м
[]
+14.9 +11.1 78 +15 +15 1020.1 1001.9 0.4 0
01 22.06 С 2 20 км 10/10 1500 м
[]
+15.0 +10.2 73 +15 +15 1019.7 1001.5
02 22.06 С 1 20 км 10/10 1500 м
[]
+15.1 +9.7 70 +16 +16 1019.4 1001.2
03 22.06 С 1
{5}
20 км 10/10 1500 м
[]
+14.6 +9.4 71 +15 +15 1019.2 1001.0 0
04 22.06 С 1 20 км 10/10 1500 м
[]
+14.1 +9.7 75 +14 +14 1018.9 1000.7
05 22.06 С 1 20 км 10/10
[]
+14.3 +10.3 77 +15 +15 1018.7 1000.5
06 22.06 С 1
{3}
20 км 10/0
[]
+14.7 +10.1 74 +15 +15 1018.9 1000.7 +14.0 +21.2 0.4 0
07 22.06 С 2 20 км 10/10
[]
+15.6 +10.4 71 +16 +16 1018.6 1000.5
08 22.06 С 1 20 км 8/8
[]
+17.8 +10.4 62 +19 +21 1018.5 1000.5
09 22.06 С 1
{4}
20 км 8/0
[]
+18.1 +10.5 61 +19 +22 1018.2 1000.2 0
10 22.06 СЗ 1 20 км н/о +20.3 +11.2 56 +23 +23 комфорт 1018.0 1000.2
11 22.06 С 2 20 км 10/10 1500 м
[]
+20.8 +12.0 57 +24 +24 комфорт 1018.0 1000.2
12 22.06 С 2
{7}
20 км 9/9 1500 м
[]
+21.3 +11.9 55 +23 +25 комфорт 1018.0 1000.2 0
13 22.06 С 2 20 км 10/6 1000 м
[]
+21.6 +12.4 56 +24 +27 комфорт 1017.5 999.8
14 22.06 СВ 2 20 км 9/5 1110 м
[]
+22.6 +13.6 57 +26 +30 жарко 1017.2 999.5
15 22.06 СВ 2
{6}
20 км 9/9 1000 м
[]
+22.7 +14.3 59 +26 +31 жарко 1016.7 999.0 0
16 22.06 СВ 2 20 км н/о +23.1 +14.1 57 +27 +27 душно 1016.2 998.6
17 22.06 СВ 2 20 км н/о +22.9 +14.5 59 +27 +27 душно 1015.9 998.3
18 22.06 В 1
{5}
20 км н/о +22.0 +14.1 61 +25 +25 комфорт 1016.3 998.6 +14.6 +23.3 0
19 22.06 штиль 0 20 км н/о +21.7 +14.3 63 +25 +25 комфорт 1016.2 998.5
20 22.06 З 1 20 км 10/10 1230 м
[]
+20.4 +14.5 69 +24 +24 комфорт 1016.7 998.9
21 22.06 С 1
{2}
20 км н/о +18.5 +14.6 78 +21 +21 комфорт 1016.9 999.0 0
22 22.06 С 1 20 км н/о +17.7 +14.4 81 +19 +19 1017.0 999.0
23 22.06 СВ 1 20 км н/о +17.5 +14.2 81 +19 +19 1016.6 998.6
00 23.06 СЗ 1
{4}
17 км н/о +15.7 +12.8 83 +17 +17 1016.4 998.3 0
01 23.06 ЮЗ 1 11 км н/о +14.1 +12.7 91 +15 +15 1016.6 998.4
02 23.06 СВ 1 18 км н/о +13.5 +12.4 93 +14 +14 1016.2 998.0
03 23.06 ЮЗ 1
{3}
10 км н/о +12.9 +12.0 94 +14 +14 1016.6 998.3 0
04 23.06 СВ 1 7000 м н/о +12.3 +11.5 95 +13 +13 1016.2 997.9
05 23.06 ЮЗ 1 12 км н/о +13.8 +13.2 96 +15 +15 1016.3 998.1
06 23.06 С 1
{3}
19 км н/о +16.6 +15.1 91 +18 +18 1015.8 997.8 +12.2 +22.3 0
07 23.06 СВ 1 19 км н/о +20.3 +16.1 77 +25 +25 комфорт 1015.6 997.8
08 23.06 ЮВ 2 20 км н/о +22.5 +15.6 65 +26 +26 жарко 1015.4 997.8
09 23.06 ЮВ 2
{6}
18 км н/о +25.1 +16.3 58 +28 +28 жарко 1015.3 997.8 0
10 23.06 В 2 20 км н/о +25.8 +14.9 51 +29 +29 душно 1014.7 997.3
11 23.06 В 2 18 км н/о +26.8 +15.5 50 +30 +30 душно 1014.4 997.0
12 23.06 В 2
{7}
20 км н/о +28.0 +15.0 45 +31 +31 душно 1013.9 996.6 0
13 23.06 ЮВ 2 20 км н/о +29.1 +14.5 41 +31 +31 жарко 1013.8 996.6
14 23.06 ЮВ 2 20 км н/о +30.1 +15.0 40 +32 +32 жарко 1013.3 996.1
15 23.06 В 2
{9}
18 км н/о +29.5 +14.9 41 +32 +32 душно 1013.3 996.1 0
16 23.06 ЮВ 2 20 км н/о +29.1 +14.5 41 +31 +31 жарко 1013.1 995.9
17 23.06 ЮВ 2 20 км н/о +29.4 +14.8 41 +32 +32 душно 1013.2 996.0
18 23.06 В 2
{7}
20 км н/о +29.0 +14.8 42 +31 +31 жарко 1013.2 996.0 +16.7 +30.4 0
19 23.06 ЮВ 1 20 км н/о +26.5 +15.2 50 +29 +29 жарко 1013.8 996.4
20 23.06 ЮВ 1 18 км н/о +23.4 +15.4 61 +28 +28 душно 1014.5 996.9
21 23.06 ЮЗ 1
{2}
20 км н/о +21.6 +15.4 68 +25 +25 комфорт 1015.2 997.5 0
22 23.06 ЮВ 1 20 км н/о +20.4 +15.8 75 +24 +24 комфорт 1015.5 997.7
23 23.06 ЮЗ 1 20 км н/о +18.4 +15.3 82 +21 +21 комфорт 1015.9 998.0
00 24.06 ЮЗ 1
{2}
17 км н/о +17.1 +14.7 86 +19 +19 1016.1 998.1 0
01 24.06 С 1 20 км н/о +16.2 +14.4 89 +18 +18 1016.2 998.2
02 24.06 штиль 0 20 км н/о +15.7 +14.2 91 +15 +15 1015.9 997.8
03 24.06 З 1
{2}
19 км н/о +15.0 +13.7 92 +16 +16 1015.8 997.7 0
04 24.06 штиль 0 17 км н/о +14.6 +13.5 93 +14 +14 1016.0 997.9
05 24.06 СВ 1 19 км н/о +16.8 +15.8 94 +18 +18 1015.9 997.9
06 24.06 ЮЗ 1
{2}
20 км н/о +19.2 +15.7 80 +22 +22 комфорт 1015.8 998.0 +14.4 +29.0 0
07 24.06 В 1 20 км н/о +22.4 +16.4 69 +27 +27 душно 1015.7 998.1
08 24.06 В 1 20 км н/о +25.1 +17.0 61 +29 +29 душно 1015.5 998.0
09 24.06 В 1
{3}
19 км н/о +27.9 +17.7 54 +32 +32 душно 1015.3 998.0 0
10 24.06 Ю 2
{4}
20 км н/о +30.0 +16.4 44 +33 +33 душно 1015.3 998.1
11 24.06 СВ 1 20 км н/о +30.7 +16.3 42 +34 +34 очень
душно
1015.1 997.9
12 24.06 СВ 2
{6}
19 км н/о +32.4 +15.0 35 +34 +34 очень
жарко
1014.5 997.4 0
13 24.06 СВ 2 20 км н/о +32.7 +14.3 33 +34 +34 очень
жарко
1014.1 997.1
14 24.06 СВ 2 20 км н/о +32.6 +15.1 35 +35 +35 душно 1013.6 996.6
15 24.06 СВ 3
{8}
20 км н/о +33.5 +15.0 33 +35 +35 душно 1013.2 996.2 0
16 24.06 В 2 20 км н/о +33.2 +13.3 30 +34 +34 очень
жарко
1013.0 996.0
17 24.06 В 3 20 км н/о +33.1 +12.1 28 +33 +33 жарко 1013.0 996.0
18 24.06 В 2
{8}
20 км н/о +32.0 +15.1 36 +34 +34 душно 1013.1 996.0 +19.2 +33.9 0
19 24.06 В 2 20 км н/о +29.5 +14.5 40 +32 +32 душно 1013.6 996.4
20 24.06 ЮВ 1 20 км н/о +26.8 +15.5 50 +30 +30 душно 1014.2 996.8
21 24.06 В 2
{4}
20 км н/о +25.3 +15.9 56 +29 +29 душно 1013.6 996.2 0
22 24.06 ЮВ 1 20 км н/о +24.3 +16.3 61 +28 +28 душно 1014.3 996.8
23 24.06 ЮВ 2 20 км н/о +24.2 +16.2 61 +28 +28 душно 1013.8 996.3
00 25.06 ЮВ 1
{5}
20 км н/о +22.3 +16.1 68 +26 +26 жарко 1014.2 996.6 0
01 25.06 Ю 1 20 км н/о +22.0 +15.8 68 +26 +26 душно 1014.2 996.6
02 25.06 ЮВ 1 20 км н/о +21.7 +16.0 70 +25 +25 комфорт 1014.4 996.7
03 25.06 ЮВ 2
{5}
20 км н/о +21.7 +15.8 69 +25 +25 комфорт 1014.8 997.1 0
04 25.06 ЮВ 2 20 км н/о +20.9 +15.7 72 +25 +25 комфорт 1015.2 997.5
05 25.06 ЮВ 2 20 км н/о +21.2 +15.9 72 +25 +25 комфорт 1015.7 998.0
06 25.06 Ю 2
{5}
20 км н/о +24.0 +16.5 63 +27 +27 жарко 1016.1 998.5 +20.8 +32.0 0
07 25.06 ЮВ 2 20 км н/о +26.2 +16.2 54 +30 +30 душно 1016.4 999.0
08 25.06 Ю 2 20 км н/о +28.4 +15.7 46 +31 +31 душно 1016.4 999.1
09 25.06 ЮЗ 2
{6}
20 км н/о +29.0 +14.0 40 +31 +31 жарко 1016.6 999.3 0
10 25.06 Ю 2 18 км н/о +30.1 +13.4 36 +32 +32 жарко 1017.0 999.8
11 25.06 ЮЗ 2 20 км н/о +31.1 +12.9 33 +32 +32 жарко 1017.1 999.9
12 25.06 Ю 2
{9}
20 км н/о +31.1 +12.5 32 +32 +32 жарко 1017.3 1000.1 0
13 25.06 З 2 20 км н/о +32.2 +13.4 32 +33 +33 жарко 1017.1 1000.0
14 25.06 ЮЗ 2 19 км н/о +32.6 +14.2 33 +34 +34 очень
жарко
1017.2 1000.1
15 25.06 З 2 20 км н/о +33.1 +14.2 32 +34 +34 очень
жарко
1017.3 1000.2
16 25.06 З 2 20 км н/о +33.2 +13.8 31 +34 +34 очень
жарко
1017.1 1000.0
17 25.06 З 1 20 км н/о +32.7 +14.3 33 +34 +34 очень
жарко
1017.3 1000.2

 

Местоположение метеостанции Осер (Франция): широта 47.83 долгота 3.55 высота над уровнем моря 212 м.

В архиве по умолчанию представлена погода в Осере за последнюю неделю. Архивные данные за месяц целиком и за предыдущие месяцы, начиная с января 2011 года, Вы можете получить, выбрав интересующий диапазон дат из раскрывающегося списка и нажав кнопку "Ввод!".


*Определитесь, кто Вы:
робот инопланетянин человек

Внимание! Время в таблицах - всемирное. Для получения местного времени необходимо прибавить поправку, которая равна 1 ч.

Смотрите также архив погоды в соседних городах и на ближайших метеорологических станциях:

Погода в Труа (Франция) (66 км)
Погода на Базе ВВС Lanveoc Poulmic (Франция) (77 км)
Погода в Невере (Франция) (98 км)
Погода в Мелене (Франция) (109 км)
Погода в Аворе (Франция) (111 км)
Погода в Париж Ватри аэропорту (Франция) (115 км)
Погода в Бурже (Франция) (123 км)
Погода в Дижоне (Франция) (131 км)
Погода в Париж Орли аэропорту (Франция) (132 км)
Погода в Лангре (Франция) (133 км)

Пояснения к столбцам:

Ветер - указаны скорость ветра в м/с - средняя за 10 мин, порывы в срок и между сроками (в фигурных скобках) и направление, откуда дует ветер: С - северный, СВ - северо-восточный, В - восточный, ЮВ - юго-восточный, Ю - южный, ЮЗ - юго-западный, З - западный, СЗ - северо-западный.
Видимость - горизонтальная дальность видимости в метрах или километрах. При видимости от 1 до 10 км при отсутствии осадков обычно наблюдается дымка, при ухудшении видимости до 1 км и менее - туман. В сухую погоду видимость может ухудшаться дымом, пылью или мглою.
Явления - указаны атмосферные явления, наблюдавшиеся в срок или в последний час перед сроком; фигурными скобками обозначены явления, наблюдавшиеся между сроками (за 1-3 часа до срока); квадратными скобками обозначены град или гололедные отложения с указанием их диаметра в мм.
Облачность - указаны через наклонную черту общая и нижняя облачность в баллах и высота нижней границы облаков в метрах; квадратными скобками обозначены формы облаков: Ci - перистые, Cs - перисто-слоистые, Cc - перисто-кучевые, Ac - высококучевые, As - высокослоистые, Sc - слоисто-кучевые, Ns - слоисто-дождевые, Cu - кучевые, Cb - кучево-дождевые. Подробнее классификацию облаков см. в Атласе облаков (PDF).
T - Температура воздуха - температура, измеренная на высоте 2 м над землей.
Td - Температура точки росы - температура, при понижении до которой содержащийся в воздухе водяной пар достигнет насыщения.
f - Относительная влажность воздуха - влажноcть воздуха, измеренная на высоте 2 м над землей.
Te - Эффективная температура - температура, которую ощущает одетый по сезону человек в тени. Характеристика душности погоды. При расчете учитывается влияние влажности воздуха и скорости ветра на теплоощущения человека.
Tes - Эффективная температура на солнце - температура, которую ощущает человек, с поправкой на солнечный нагрев. Характеристика знойности погоды. Зависит от высоты солнца над горизонтом, облачности и скорости ветра. Ночью, в пасмурную погоду, а также при ветре 12 м/с и более поправка равна нулю.
P - Атмосферное давление - приведенное к уровню моря атмосферное давление.
Po - Атмосферное давление - измеренное на уровне метеостанции атмосферное давление.
Tmin - Минимальная температура - минимум температуры воздуха на высоте 2 м над землей.
Tmax - Максимальная температура - максимум температуры воздуха на высоте 2 м над землей.
R - Количество осадков - Количество выпавших осадков за период времени, мм. При наведении курсора мыши на число - период времени, за который выпало указанное количество осадков.
R24 - Количество осадков - Количество выпавших осадков за 24 часа, мм.
S - Снежный покров - Высота снежного покрова, см. При наведении курсора мыши на число - состояние снежного покрова и степень покрытия местности в баллах.